DateTimeUTC,F1_A11,F1_S11,BsB_S11,BsG_S11,BsR_S11,BbsB_S11,BbsG_S11,BbsR_S11,BaB_A11,BaG_A11,BaR_A11,Tu_S11,T_S11,Uu_S11,U_S11,P_S11,T1_A11
2021-12-10T03:00:00Z,00000200,21000000,,,,,,,-000.07,-000.00,-000.36,19.7,26.9,,00.0,0650.8,31.1
2021-12-10T03:01:00Z,00000200,21000000,,,,,,,-000.02,-000.02,-000.03,19.7,26.9,,00.0,0650.8,31.1
2021-12-10T03:02:00Z,00000200,21000000,,,,,,,0000.14,0000.08,0000.20,19.7,26.9,,00.0,0650.8,31.1
2021-12-10T03:03:00Z,00000200,61000000,,,,,,,-000.20,0000.08,-000.15,19.7,26.9,,00.0,0650.8,31.1
2021-12-10T03:04:00Z,00000200,41000000,0000.45,0000.20,0000.62,-000.15,0000.28,0000.15,0000.05,0000.23,-000.06,19.7,26.7,,00.0,0651.6,31.1
2021-12-10T03:05:00Z,00000200,01000000,0000.44,0000.04,0000.39,-000.05,0000.24,0000.30,0000.29,0000.27,0000.54,19.7,26.6,,00.0,0651.6,31.1
2021-12-10T03:06:00Z,00000200,01000000,0000.07,0000.29,0000.48,0000.06,-000.18,0000.18,0000.28,-000.09,0000.13,19.6,26.5,,00.0,0651.6,31.0
2021-12-10T03:07:00Z,00000200,01000000,-000.25,-000.02,0000.38,0000.13,0000.03,0000.01,0000.43,0000.76,0000.22,19.6,26.5,,00.0,0651.6,31.1
2021-12-10T03:08:00Z,00000200,01000000,0000.18,0000.09,0000.27,0000.28,-000.17,0000.13,0000.77,0000.15,0000.09,19.5,26.4,,00.0,0651.6,31.0
2021-12-10T03:09:00Z,00000200,01000000,0000.03,-000.16,0000.41,0000.51,-000.28,-000.05,-000.07,0000.04,0000.23,19.6,26.4,,00.0,0651.6,31.0
2021-12-10T03:10:00Z,00000200,01000000,-000.35,0000.11,0000.14,0000.15,0000.22,-000.28,-000.13,0000.16,-000.17,19.6,26.4,,00.0,0651.7,31.1
2021-12-10T03:11:00Z,00000200,01000000,0000.23,-000.06,0000.01,0000.06,0000.10,0000.08,0000.02,-000.26,0000.35,19.6,26.4,,00.0,0651.7,31.1
2021-12-10T03:12:00Z,00000200,01000000,0000.60,-000.16,0000.13,-000.46,-000.15,-000.12,-000.68,-000.22,-000.29,19.6,26.4,,00.0,0651.7,31.1
2021-12-10T03:13:00Z,00000200,01000000,-000.33,0000.00,0000.16,0000.04,0000.06,-000.01,0000.34,0000.11,-000.22,19.7,26.4,,00.0,0651.7,31.1
2021-12-10T03:14:00Z,00000200,01000000,-000.04,-000.04,0000.20,0000.36,-000.04,0000.23,0000.02,0000.01,0000.10,19.7,26.4,,00.0,0651.6,31.1
2021-12-10T03:15:00Z,00000200,01000000,-000.05,0000.30,0000.17,0000.17,0000.29,-000.25,0000.83,0000.90,0000.41,19.8,26.4,,00.0,0651.6,31.1
2021-12-10T03:16:00Z,00000200,01000000,0000.31,0000.10,0000.49,-000.06,0000.08,0000.15,0000.60,0000.36,0000.44,19.8,26.4,,00.0,0651.6,31.1
2021-12-10T03:17:00Z,00000200,01000000,-000.07,-000.17,0000.22,0000.41,0000.22,0000.23,-000.04,0000.23,0000.37,19.8,26.4,,00.0,0651.6,31.1
2021-12-10T03:18:00Z,00000200,01000000,-000.46,0000.19,0000.43,0000.16,-000.08,0000.42,0000.12,-000.00,-000.14,19.8,26.4,,00.0,0651.7,31.1
2021-12-10T03:19:00Z,00000200,01000000,0000.51,0000.03,0000.19,0000.26,-000.18,-000.27,0000.39,0000.22,0000.15,19.8,26.5,,00.0,0651.7,31.1
2021-12-10T03:20:00Z,00000200,01000000,0000.28,0000.20,0000.41,0000.34,-000.04,-000.05,-000.09,0000.08,0000.41,19.8,26.5,,00.0,0651.7,31.1
2021-12-10T03:21:00Z,00000200,01000000,0000.03,0000.01,0000.09,0000.50,0000.30,-000.10,-000.26,-000.44,-000.54,19.7,26.4,,00.0,0651.6,31.1
2021-12-10T03:22:00Z,00000200,01000000,-000.11,0000.03,0000.06,-000.39,0000.31,0000.23,-000.05,-000.20,-000.12,19.7,26.4,,00.0,0651.6,31.1
2021-12-10T03:23:00Z,00000200,01000000,-000.39,0000.32,0000.37,-000.09,-000.02,-000.03,0000.19,0000.01,0000.16,19.6,26.4,,00.0,0651.6,31.1
2021-12-10T03:24:00Z,00000200,01000000,0000.76,0000.18,0000.36,0000.30,0000.00,0000.17,0000.29,0000.13,0000.18,19.6,26.3,,00.0,0651.6,31.1
2021-12-10T03:25:00Z,00000200,01000000,-000.20,0000.56,0000.03,0000.27,0000.32,-000.05,0000.13,0000.27,-000.09,19.7,26.3,,00.0,0651.6,31.1
2021-12-10T03:26:00Z,00000200,01000000,0000.04,0000.19,0000.04,0000.05,-000.27,0000.34,0000.02,0000.22,-000.13,19.7,26.3,,00.0,0651.6,31.1
2021-12-10T03:27:00Z,00000200,01000000,-000.50,0000.21,0000.31,0000.22,-000.09,0000.45,-000.25,0000.09,0000.33,19.7,26.3,,00.0,0651.6,31.1
2021-12-10T03:28:00Z,00000200,01000000,0000.44,-000.30,0000.31,-000.24,0000.33,0000.15,0000.26,0000.26,-000.18,19.7,26.3,,00.0,0651.6,31.1
2021-12-10T03:29:00Z,00000200,01000000,-000.06,0000.05,0000.67,0000.12,-000.25,-000.02,0000.11,-000.29,0000.33,19.8,26.4,,00.0,0651.6,31.1
2021-12-10T03:30:00Z,00000200,01000000,-000.50,0000.19,0000.19,-000.16,-000.11,0000.07,-000.25,-000.39,-000.30,19.8,26.4,,00.0,0651.7,31.1
2021-12-10T03:31:00Z,00000200,01000000,-000.50,0000.31,0000.40,0000.10,-000.24,0000.00,-000.23,0000.35,0000.07,19.8,26.4,,00.0,0651.6,31.1
2021-12-10T03:32:00Z,00000200,01000000,-000.33,0000.12,0000.33,-000.23,0000.00,-000.03,-000.04,-000.21,-000.22,19.9,26.4,,00.0,0651.6,31.1
2021-12-10T03:33:00Z,00000200,01000000,-000.79,-000.26,0000.55,-000.20,-000.06,0000.24,0000.08,0000.01,0000.27,19.9,26.4,,00.0,0651.6,31.1
2021-12-10T03:34:00Z,00000200,01000000,-000.16,0000.45,0000.19,-000.48,-000.11,-000.18,0000.27,0000.25,0000.08,19.9,26.4,,00.0,0651.6,31.1
2021-12-10T03:35:00Z,00000200,01000000,0000.27,0000.25,0000.10,-000.46,-000.20,0000.10,0000.31,0000.18,0000.24,19.9,26.4,,00.0,0651.6,31.1
2021-12-10T03:36:00Z,00000200,01000000,0000.58,0000.09,0000.48,-000.34,0000.01,0000.05,0000.09,0000.22,-000.11,20.0,26.4,,00.0,0651.6,31.1
2021-12-10T03:37:00Z,00000200,01000000,-000.08,0000.05,0000.39,-000.54,0000.12,0000.58,0000.02,0000.33,-000.05,19.9,26.5,,00.0,0651.7,31.1
2021-12-10T03:38:00Z,00000200,01000000,0000.87,0000.06,0000.02,0000.68,0000.19,-000.38,0000.29,-000.18,0000.08,19.9,26.4,,00.0,0651.6,31.1
2021-12-10T03:39:00Z,00000200,01000000,-000.03,-000.28,0000.66,-000.10,0000.05,0000.35,-000.04,0000.03,0000.13,19.9,26.4,,00.0,0651.7,31.1
2021-12-10T03:40:00Z,00000200,01000000,-000.10,-000.04,0000.65,0000.39,-000.13,0000.48,0000.09,-000.15,0000.12,19.9,26.4,,00.0,0651.6,31.1
2021-12-10T03:41:00Z,00000200,01000000,-000.05,-000.05,0000.06,0000.78,0000.01,-000.24,0000.21,0000.59,0000.01,19.9,26.4,,00.0,0651.7,31.1
2021-12-10T03:42:00Z,00000200,01000000,-000.69,-000.25,0000.51,0000.39,0000.05,0000.30,-000.01,0000.06,-000.10,19.9,26.4,,00.0,0651.7,31.1
2021-12-10T03:43:00Z,00000200,01000000,-000.16,-000.16,0000.20,0000.65,-000.11,-000.06,-000.35,-000.49,-000.10,20.0,26.4,,00.0,0651.7,31.1
2021-12-10T03:44:00Z,00000200,01000000,-000.30,0000.02,0000.25,-000.15,0000.17,0000.04,0000.15,0000.32,0000.29,20.0,26.5,,00.0,0651.7,31.1
2021-12-10T03:45:00Z,00000200,01000000,0000.66,0000.06,0000.38,-000.28,0000.04,0000.03,-000.11,-000.44,-000.00,20.1,26.5,,00.0,0651.7,31.1
2021-12-10T03:46:00Z,00000200,01000000,-000.33,0000.56,0000.26,-000.13,0000.11,0000.24,0000.25,0000.10,0000.25,20.1,26.5,,00.0,0651.8,31.1
2021-12-10T03:47:00Z,00000200,01000000,0000.24,0000.02,0000.16,0000.23,0000.13,0000.54,-000.73,-000.48,-000.72,20.1,26.5,,00.0,0651.8,31.1
2021-12-10T03:48:00Z,00000200,01000000,-000.07,0000.25,0000.20,0000.32,0000.01,-000.05,-000.70,-000.40,-000.18,20.1,26.5,,00.0,0651.8,31.1
2021-12-10T03:49:00Z,00000200,01000000,0000.46,0000.17,0000.72,-000.14,0000.03,0000.07,0000.43,0000.35,0000.35,20.2,26.5,,00.0,0651.8,31.1
2021-12-10T03:50:00Z,00000200,01000000,-000.38,-000.05,0000.66,0000.19,0000.21,0000.21,-000.21,-000.28,-000.50,20.2,26.5,,00.0,0651.8,31.1
2021-12-10T03:51:00Z,00000200,01000000,0000.06,-000.07,0000.25,0000.07,0000.02,0000.26,0000.00,-000.09,0000.26,20.2,26.5,,00.0,0651.8,31.1
2021-12-10T03:52:00Z,00000200,01000000,0000.14,0000.01,0000.36,0000.40,0000.09,0000.05,0000.46,0000.42,0000.19,20.2,26.6,,00.0,0651.8,31.1
2021-12-10T03:53:00Z,00000200,01000000,0000.55,0000.24,0000.56,0000.24,-000.05,0000.28,0000.64,0000.61,0000.30,20.2,26.6,,00.0,0651.7,31.1
2021-12-10T03:54:00Z,00000200,01000000,0000.60,0000.37,0000.67,0000.15,0000.00,0000.09,0000.53,0000.51,0000.13,20.2,26.6,,00.0,0651.7,31.2
2021-12-10T03:55:00Z,00000200,01000000,-000.34,0000.15,0000.19,0000.17,0000.30,0000.21,0000.06,-000.27,0000.43,20.2,26.6,,00.0,0651.7,31.1
2021-12-10T03:56:00Z,00000200,01000000,0000.10,0000.04,0000.41,0000.22,-000.14,0000.16,0000.22,0000.55,0000.00,20.2,26.6,,00.0,0651.7,31.1
2021-12-10T03:57:00Z,00000200,41000000,,,,,,,-000.11,-000.30,0000.15,20.2,26.6,,00.0,0651.7,31.1
2021-12-10T03:58:00Z,00000200,61000000,,,,,,,0000.01,0000.49,0000.12,19.9,26.7,,00.0,0650.7,31.1
2021-12-10T03:59:00Z,00000200,21000000,,,,,,,0000.27,-000.16,0000.02,19.9,26.8,,00.0,0650.7,31.1
